FW3754 Weather Reports


Display with metric or nautical units.
time (UTC)temp
F
wind
direction
speed
MPH
gust
MPH
rain 1hr
in
rain 24hr
in
rain mn
in
humidity
%
barometer
mb
20260503023005 81 360 4.0 0.0 0.00 0.00 0.00 72 1012.9
20260503021503 81 346 5.0 0.0 0.00 0.00 0.00 71 1012.9
20260503020002 81 360 5.0 0.0 0.00 0.00 0.00 70 1012.6
20260503014603 82 324 5.0 0.0 0.00 0.00 0.00 68 1012.5
20260503013103 82 306 5.0 0.0 0.00 0.00 0.00 66 1012.4
20260503011607 83 335 4.0 0.0 0.00 0.00 0.00 65 1012.2
20260503010120 83 350 5.0 0.0 0.00 0.00 0.00 63 1012.0
20260503004557 84 317 5.0 0.0 0.00 0.00 0.00 61 1011.9
20260503003100 84 344 6.0 0.0 0.00 0.00 0.00 58 1011.6
20260503001600 85 348 6.0 0.0 0.00 0.00 0.00 55 1011.5
20260502234555 87 360 6.0 0.0 0.00 0.00 0.00 51 1011.1
20260502233056 88 5 7.0 0.0 0.00 0.00 0.00 47 1010.8
20260502231556 88 360 5.0 0.0 0.00 0.00 0.00 45 1010.5
20260502230054 89 351 5.0 0.0 0.00 0.00 0.00 43 1010.3
20260502224600 90 322 6.0 0.0 0.00 0.00 0.00 42 1010.2
20260502223053 91 14 6.0 0.0 0.00 0.00 0.00 42 1009.9
20260502221553 91 344 8.0 0.0 0.00 0.00 0.00 42 1009.9
20260502220051 91 5 10.0 0.0 0.00 0.00 0.00 45 1009.8
20260502214608 92 9 8.0 0.0 0.00 0.00 0.00 43 1009.7
20260502213054 92 30 9.0 0.0 0.00 0.00 0.00 39 1009.7
20260502211601 92 5 7.0 0.0 0.00 0.00 0.00 42 1009.4
20260502210053 92 322 9.0 0.0 0.00 0.00 0.00 40 1009.4
20260502204550 93 5 6.0 0.0 0.00 0.00 0.00 40 1009.4
20260502203059 92 355 9.0 0.0 0.00 0.00 0.00 42 1009.5
20260502201554 92 25 10.0 0.0 0.00 0.00 0.00 42 1009.5
20260502200045 92 5 11.0 0.0 0.00 0.00 0.00 40 1009.7
20260502194545 92 334 10.0 0.0 0.00 0.00 0.00 43 1009.9
20260502193049 92 289 12.0 0.0 0.00 0.00 0.00 44 1010.0
20260502191543 93 32 10.0 0.0 0.00 0.00 0.00 43 1010.0
20260502190041 93 324 8.0 0.0 0.00 0.00 0.00 44 1010.1
20260502184540 92 273 9.0 0.0 0.00 0.00 0.00 45 1010.2
20260502183038 92 325 8.0 0.0 0.00 0.00 0.00 48 1010.2
20260502181536 92 277 8.0 0.0 0.00 0.00 0.00 49 1010.5
20260502163031 91 265 9.0 0.0 0.00 0.00 0.00 59 1011.0
20260502161523 90 296 8.0 0.0 0.00 0.00 0.00 59 1011.2
20260502151519 88 251 8.0 0.0 0.00 0.00 0.00 63 1011.5
20260502123049 79 236 3.0 0.0 0.00 0.00 0.00 84 1011.3
20260502121550 79 222 3.0 0.0 0.00 0.00 0.00 84 1011.2
20260502114610 76 259 0.0 0.0 0.00 0.00 0.00 89 1011.2
20260502113046 75 218 0.0 0.0 0.00 0.00 0.00 89 1011.3
20260502111546 74 218 0.0 0.0 0.00 0.00 0.00 89 1011.3
20260502110044 74 185 0.0 0.0 0.00 0.00 0.00 88 1011.3
20260502104543 74 186 0.0 0.0 0.00 0.00 0.00 87 1011.3
20260502103043 74 186 0.0 0.0 0.00 0.00 0.00 87 1011.2
20260502101559 74 186 0.0 0.0 0.00 0.00 0.00 86 1011.1
20260502071532 75 40 0.0 0.0 0.00 0.00 0.00 81 1011.2
20260502070035 75 55 0.0 0.0 0.00 0.00 0.00 82 1011.3
20260502064543 75 32 0.0 0.0 0.00 0.00 0.00 84 1011.3
20260502063030 75 19 0.0 0.0 0.00 0.00 0.00 83 1011.4
20260502061530 75 342 0.0 0.0 0.00 0.00 0.00 83 1011.4
20260502060040 76 302 0.0 0.0 0.00 0.00 0.00 85 1011.4
20260502054527 76 290 0.0 0.0 0.00 0.00 0.00 84 1011.3
20260502053025 75 290 0.0 0.0 0.00 0.00 0.00 83 1011.3
20260502051529 76 290 0.0 0.0 0.00 0.00 0.00 81 1011.4
20260502050025 76 290 0.0 0.0 0.00 0.00 0.00 80 1011.6
20260502044518 77 290 0.0 0.0 0.00 0.00 0.00 79 1011.7
20260502043016 77 290 0.0 0.0 0.00 0.00 0.00 78 1011.8
20260502041515 78 276 0.0 0.0 0.00 0.00 0.00 77 1011.9
20260502040013 78 349 2.0 0.0 0.00 0.00 0.00 78 1012.2
20260502034508 79 328 2.0 0.0 0.00 0.00 0.00 78 1012.2
20260502033012 79 257 2.0 0.0 0.00 0.00 0.00 78 1012.1
20260502031508 79 268 4.0 0.0 0.00 0.00 0.00 77 1012.0
20260502030007 79 250 4.0 0.0 0.00 0.00 0.00 77 1012.0
20260502024512 80 251 4.0 0.0 0.00 0.00 0.00 76 1012.0